Year,Month,Day,Hour,Minute,Value (Times are PST for temperature in C)
2021,08,13,00,00,22.30
2021,08,13,00,01,22.30
2021,08,13,00,02,22.20
2021,08,13,00,03,22.20
2021,08,13,00,04,22.20
2021,08,13,00,05,22.10
2021,08,13,00,06,22.10
2021,08,13,00,07,22.00
2021,08,13,00,08,21.90
2021,08,13,00,09,21.90
2021,08,13,00,10,21.80
2021,08,13,00,11,21.80
2021,08,13,00,12,21.80
2021,08,13,00,13,21.70
2021,08,13,00,14,21.70
2021,08,13,00,15,21.70
2021,08,13,00,16,21.70
2021,08,13,00,17,21.60
2021,08,13,00,18,21.60
2021,08,13,00,19,21.60
2021,08,13,00,20,21.50
2021,08,13,00,21,21.50
2021,08,13,00,22,21.50
2021,08,13,00,23,21.50
2021,08,13,00,24,21.50
2021,08,13,00,25,21.50
2021,08,13,00,26,21.50
2021,08,13,00,27,21.50
2021,08,13,00,28,21.40
2021,08,13,00,29,21.40
2021,08,13,00,30,21.40
2021,08,13,00,31,21.40
2021,08,13,00,32,21.40
2021,08,13,00,33,21.30
2021,08,13,00,34,21.30
2021,08,13,00,35,21.30
2021,08,13,00,36,21.30
2021,08,13,00,37,21.30
2021,08,13,00,38,21.20
2021,08,13,00,39,21.20
2021,08,13,00,40,21.20
2021,08,13,00,41,21.10
2021,08,13,00,42,21.10
2021,08,13,00,43,21.10
2021,08,13,00,44,21.10
2021,08,13,00,45,21.10
2021,08,13,00,46,21.10
2021,08,13,00,47,21.10
2021,08,13,00,48,21.10
2021,08,13,00,49,21.00
2021,08,13,00,50,21.00
2021,08,13,00,51,21.00
2021,08,13,00,52,20.90
2021,08,13,00,53,20.90
2021,08,13,00,54,20.90
2021,08,13,00,55,20.90
2021,08,13,00,56,20.80
2021,08,13,00,57,20.80
2021,08,13,00,58,20.80
2021,08,13,00,59,20.80
2021,08,13,01,00,20.80
2021,08,13,01,01,20.70
2021,08,13,01,02,20.70
2021,08,13,01,03,20.70
2021,08,13,01,04,20.70
2021,08,13,01,05,20.60
2021,08,13,01,06,20.60
2021,08,13,01,07,20.60
2021,08,13,01,08,20.60
2021,08,13,01,09,20.60
2021,08,13,01,10,20.50
2021,08,13,01,11,20.50
2021,08,13,01,12,20.50
2021,08,13,01,13,20.40
2021,08,13,01,14,20.40
2021,08,13,01,15,20.40
2021,08,13,01,16,20.30
2021,08,13,01,17,20.30
2021,08,13,01,18,20.30
2021,08,13,01,19,20.30
2021,08,13,01,20,20.20
2021,08,13,01,21,20.20
2021,08,13,01,22,20.10
2021,08,13,01,23,20.10
2021,08,13,01,24,20.10
2021,08,13,01,25,20.00
2021,08,13,01,26,20.00
2021,08,13,01,27,19.90
2021,08,13,01,28,19.90
2021,08,13,01,29,19.80
2021,08,13,01,30,19.80
2021,08,13,01,31,19.80
2021,08,13,01,32,19.70
2021,08,13,01,33,19.70
2021,08,13,01,34,19.70
2021,08,13,01,35,19.70
2021,08,13,01,36,19.60
2021,08,13,01,37,19.60
2021,08,13,01,38,19.50
2021,08,13,01,39,19.50
2021,08,13,01,40,19.40
2021,08,13,01,41,19.40
2021,08,13,01,42,19.30
2021,08,13,01,43,19.30
2021,08,13,01,44,19.30
2021,08,13,01,45,19.30
2021,08,13,01,46,19.30
2021,08,13,01,47,19.30
2021,08,13,01,48,19.30
2021,08,13,01,49,19.20
2021,08,13,01,50,19.20
2021,08,13,01,51,19.20
2021,08,13,01,52,19.20
2021,08,13,01,53,19.20
2021,08,13,01,54,19.20
2021,08,13,01,55,19.20
2021,08,13,01,56,19.20
2021,08,13,01,57,19.20
2021,08,13,01,58,19.10
2021,08,13,01,59,19.10
2021,08,13,02,00,19.10
2021,08,13,02,01,19.10
2021,08,13,02,02,19.10
2021,08,13,02,03,19.10
2021,08,13,02,04,19.00
2021,08,13,02,05,19.00
2021,08,13,02,06,19.00
2021,08,13,02,07,19.00
2021,08,13,02,08,19.00
2021,08,13,02,09,19.00
2021,08,13,02,10,19.00
2021,08,13,02,11,19.00
2021,08,13,02,12,19.00
2021,08,13,02,13,19.00
2021,08,13,02,14,19.00
2021,08,13,02,15,18.90
2021,08,13,02,16,18.90
2021,08,13,02,17,18.90
2021,08,13,02,18,18.90
2021,08,13,02,19,18.90
2021,08,13,02,20,18.90
2021,08,13,02,21,18.90
2021,08,13,02,22,18.80
2021,08,13,02,23,18.80
2021,08,13,02,24,18.80
2021,08,13,02,25,18.70
2021,08,13,02,26,18.70
2021,08,13,02,27,18.70
2021,08,13,02,28,18.70
2021,08,13,02,29,18.70
2021,08,13,02,30,18.60
2021,08,13,02,31,18.60
2021,08,13,02,32,18.60
2021,08,13,02,33,18.50
2021,08,13,02,34,18.50
2021,08,13,02,35,18.50
2021,08,13,02,36,18.40
2021,08,13,02,37,18.40
2021,08,13,02,38,18.30
2021,08,13,02,39,18.30
2021,08,13,02,40,18.30
2021,08,13,02,41,18.20
2021,08,13,02,42,18.20
2021,08,13,02,43,18.20
2021,08,13,02,44,18.20
2021,08,13,02,45,18.20
2021,08,13,02,46,18.10
2021,08,13,02,47,18.10
2021,08,13,02,48,18.10
2021,08,13,02,49,18.10
2021,08,13,02,50,18.00
2021,08,13,02,51,18.00
2021,08,13,02,52,18.00
2021,08,13,02,53,17.90
2021,08,13,02,54,17.90
2021,08,13,02,55,17.90
2021,08,13,02,56,17.90
2021,08,13,02,57,17.90
2021,08,13,02,58,17.90
2021,08,13,02,59,17.90
2021,08,13,03,00,17.90
2021,08,13,03,01,17.90
2021,08,13,03,02,17.90
2021,08,13,03,03,17.90
2021,08,13,03,04,17.90
2021,08,13,03,05,17.90
2021,08,13,03,06,17.90
2021,08,13,03,07,17.90
2021,08,13,03,08,17.90
2021,08,13,03,09,17.90
2021,08,13,03,10,17.80
2021,08,13,03,11,17.80
2021,08,13,03,12,17.80
2021,08,13,03,13,17.80
2021,08,13,03,14,17.80
2021,08,13,03,15,17.80
2021,08,13,03,16,17.70
2021,08,13,03,17,17.70
2021,08,13,03,18,17.70
2021,08,13,03,19,17.70
2021,08,13,03,20,17.60
2021,08,13,03,21,17.60
2021,08,13,03,22,17.60
2021,08,13,03,23,17.60
2021,08,13,03,24,17.60
2021,08,13,03,25,17.60
2021,08,13,03,26,17.60
2021,08,13,03,27,17.60
2021,08,13,03,28,17.60
2021,08,13,03,29,17.60
2021,08,13,03,30,17.60
2021,08,13,03,31,17.60
2021,08,13,03,32,17.60
2021,08,13,03,33,17.60
2021,08,13,03,34,17.60
2021,08,13,03,35,17.60
2021,08,13,03,36,17.50
2021,08,13,03,37,17.50
2021,08,13,03,38,17.50
2021,08,13,03,39,17.40
2021,08,13,03,40,17.40
2021,08,13,03,41,17.40
2021,08,13,03,42,17.40
2021,08,13,03,43,17.30
2021,08,13,03,44,17.30
2021,08,13,03,45,17.30
2021,08,13,03,46,17.30
2021,08,13,03,47,17.30
2021,08,13,03,48,17.30
2021,08,13,03,49,17.30
2021,08,13,03,50,17.30
2021,08,13,03,51,17.30
2021,08,13,03,52,17.30
2021,08,13,03,53,17.30
2021,08,13,03,54,17.30
2021,08,13,03,55,17.30
2021,08,13,03,56,17.20
2021,08,13,03,57,17.20
2021,08,13,03,58,17.20
2021,08,13,03,59,17.20
2021,08,13,04,00,17.20
2021,08,13,04,01,17.20
2021,08,13,04,02,17.10
2021,08,13,04,03,17.10
2021,08,13,04,04,17.10
2021,08,13,04,05,17.10
2021,08,13,04,06,17.10
2021,08,13,04,07,17.00
2021,08,13,04,08,17.00
2021,08,13,04,09,17.00
2021,08,13,04,10,17.00
2021,08,13,04,11,16.90
2021,08,13,04,12,16.90
2021,08,13,04,13,16.90
2021,08,13,04,14,16.90
2021,08,13,04,15,16.90
2021,08,13,04,16,16.80
2021,08,13,04,17,16.80
2021,08,13,04,18,16.80
2021,08,13,04,19,16.80
2021,08,13,04,20,16.80
2021,08,13,04,21,16.70
2021,08,13,04,22,16.70
2021,08,13,04,23,16.70
2021,08,13,04,24,16.70
2021,08,13,04,25,16.60
2021,08,13,04,26,16.60
2021,08,13,04,27,16.60
2021,08,13,04,28,16.60
2021,08,13,04,29,16.50
2021,08,13,04,30,16.50
2021,08,13,04,31,16.50
2021,08,13,04,32,16.50
2021,08,13,04,33,16.40
2021,08,13,04,34,16.40
2021,08,13,04,35,16.40
2021,08,13,04,36,16.40
2021,08,13,04,37,16.40
2021,08,13,04,38,16.40
2021,08,13,04,39,16.40
2021,08,13,04,40,16.40
2021,08,13,04,41,16.40
2021,08,13,04,42,16.40
2021,08,13,04,43,16.30
2021,08,13,04,44,16.30
2021,08,13,04,45,16.30
2021,08,13,04,46,16.30
2021,08,13,04,47,16.30
2021,08,13,04,48,16.30
2021,08,13,04,49,16.30
2021,08,13,04,50,16.20
2021,08,13,04,51,16.20
2021,08,13,04,52,16.20
2021,08,13,04,53,16.20
2021,08,13,04,54,16.30
2021,08,13,04,55,16.30
2021,08,13,04,56,16.30
2021,08,13,04,57,16.30
2021,08,13,04,58,16.30
2021,08,13,04,59,16.30
2021,08,13,05,00,16.30
2021,08,13,05,01,16.30
2021,08,13,05,02,16.40
2021,08,13,05,03,16.40
2021,08,13,05,04,16.40
2021,08,13,05,05,16.40
2021,08,13,05,06,16.40
2021,08,13,05,07,16.30
2021,08,13,05,08,16.30
2021,08,13,05,09,16.30
2021,08,13,05,10,16.30
2021,08,13,05,11,16.30
2021,08,13,05,12,16.30
2021,08,13,05,13,16.30
2021,08,13,05,14,16.30
2021,08,13,05,15,16.30
2021,08,13,05,16,16.30
2021,08,13,05,17,16.30
2021,08,13,05,18,16.30
2021,08,13,05,19,16.20
2021,08,13,05,20,16.20
2021,08,13,05,21,16.20
2021,08,13,05,22,16.20
2021,08,13,05,23,16.10
2021,08,13,05,24,16.10
2021,08,13,05,25,16.10
2021,08,13,05,26,16.00
2021,08,13,05,27,16.00
2021,08,13,05,28,16.00
2021,08,13,05,29,15.90
2021,08,13,05,30,15.90
2021,08,13,05,31,15.90
2021,08,13,05,32,15.90
2021,08,13,05,33,15.80
2021,08,13,05,34,15.80
2021,08,13,05,35,15.80
2021,08,13,05,36,15.80
2021,08,13,05,37,15.80
2021,08,13,05,38,15.80
2021,08,13,05,39,15.80
2021,08,13,05,40,15.80
2021,08,13,05,41,15.80
2021,08,13,05,42,15.80
2021,08,13,05,43,15.80
2021,08,13,05,44,15.90
2021,08,13,05,45,15.90
2021,08,13,05,46,15.90
2021,08,13,05,47,15.80
2021,08,13,05,48,15.80
2021,08,13,05,49,15.80
2021,08,13,05,50,15.80
2021,08,13,05,51,15.80
2021,08,13,05,52,15.80
2021,08,13,05,53,15.80
2021,08,13,05,54,15.80
2021,08,13,05,55,15.80
2021,08,13,05,56,15.80
2021,08,13,05,57,15.70
2021,08,13,05,58,15.70
2021,08,13,05,59,15.70
2021,08,13,06,00,15.70
2021,08,13,06,01,15.70
2021,08,13,06,02,15.70
2021,08,13,06,03,15.70
2021,08,13,06,04,15.70
2021,08,13,06,05,15.70
2021,08,13,06,06,15.70
2021,08,13,06,07,15.60
2021,08,13,06,08,15.60
2021,08,13,06,09,15.60
2021,08,13,06,10,15.60
2021,08,13,06,11,15.60
2021,08,13,06,12,15.60
2021,08,13,06,13,15.60
2021,08,13,06,14,15.60
2021,08,13,06,15,15.60
2021,08,13,06,16,15.60
2021,08,13,06,17,15.60
2021,08,13,06,18,15.60
2021,08,13,06,19,15.60
2021,08,13,06,20,15.60
2021,08,13,06,21,15.60
2021,08,13,06,22,15.60
2021,08,13,06,23,15.60
2021,08,13,06,24,15.60
2021,08,13,06,25,15.60
2021,08,13,06,26,15.60
2021,08,13,06,27,15.50
2021,08,13,06,28,15.50
2021,08,13,06,29,15.50
2021,08,13,06,30,15.50
2021,08,13,06,31,15.50
2021,08,13,06,32,15.40
2021,08,13,06,33,15.40
2021,08,13,06,34,15.40
2021,08,13,06,35,15.40
2021,08,13,06,36,15.40
2021,08,13,06,37,15.40
2021,08,13,06,38,15.40
2021,08,13,06,39,15.40
2021,08,13,06,40,15.40
2021,08,13,06,41,15.40
2021,08,13,06,42,15.40
2021,08,13,06,43,15.40
2021,08,13,06,44,15.40
2021,08,13,06,45,15.40
2021,08,13,06,46,15.40
2021,08,13,06,47,15.50
2021,08,13,06,48,15.50
2021,08,13,06,49,15.50
2021,08,13,06,50,15.50
2021,08,13,06,51,15.50
2021,08,13,06,52,15.50
2021,08,13,06,53,15.50
2021,08,13,06,54,15.50
2021,08,13,06,55,15.60
2021,08,13,06,56,15.60
2021,08,13,06,57,15.60
2021,08,13,06,58,15.60
2021,08,13,06,59,15.60
2021,08,13,07,00,15.60
2021,08,13,07,01,15.60
2021,08,13,07,02,15.60
2021,08,13,07,03,15.70
2021,08,13,07,04,15.70
2021,08,13,07,05,15.70
2021,08,13,07,06,15.70
2021,08,13,07,07,15.70
2021,08,13,07,08,15.80
2021,08,13,07,09,15.80
2021,08,13,07,10,15.80
2021,08,13,07,11,15.80
2021,08,13,07,12,15.80
2021,08,13,07,13,15.90
2021,08,13,07,14,15.90
2021,08,13,07,15,15.90
2021,08,13,07,16,16.00
2021,08,13,07,17,16.00
2021,08,13,07,18,16.00
2021,08,13,07,19,16.00
2021,08,13,07,20,16.10
2021,08,13,07,21,16.10
2021,08,13,07,22,16.10
2021,08,13,07,23,16.10
2021,08,13,07,24,16.10
2021,08,13,07,25,16.10
2021,08,13,07,26,16.20
2021,08,13,07,27,16.20
2021,08,13,07,28,16.20
2021,08,13,07,29,16.20
2021,08,13,07,30,16.30
2021,08,13,07,31,16.30
2021,08,13,07,32,16.30
2021,08,13,07,33,16.30
2021,08,13,07,34,16.30
2021,08,13,07,35,16.40
2021,08,13,07,36,16.40
2021,08,13,07,37,16.40
2021,08,13,07,38,16.50
2021,08,13,07,39,16.50
2021,08,13,07,40,16.60
2021,08,13,07,41,16.60
2021,08,13,07,42,16.60
2021,08,13,07,43,16.60
2021,08,13,07,44,16.70
2021,08,13,07,45,16.70
2021,08,13,07,46,16.70
2021,08,13,07,47,16.70
2021,08,13,07,48,16.70
2021,08,13,07,49,16.70
2021,08,13,07,50,16.70
2021,08,13,07,51,16.70
2021,08,13,07,52,16.70
2021,08,13,07,53,16.70
2021,08,13,07,54,16.70
2021,08,13,07,55,16.70
2021,08,13,07,56,16.80
2021,08,13,07,57,16.80
2021,08,13,07,58,16.80
2021,08,13,07,59,16.80
2021,08,13,08,00,16.80
2021,08,13,08,01,16.80
2021,08,13,08,02,16.80
2021,08,13,08,03,16.80
2021,08,13,08,04,16.80
2021,08,13,08,05,16.80
2021,08,13,08,06,16.90
2021,08,13,08,07,16.90
2021,08,13,08,08,16.90
2021,08,13,08,09,16.90
2021,08,13,08,10,16.90
2021,08,13,08,11,17.00
2021,08,13,08,12,17.00
2021,08,13,08,13,17.00
2021,08,13,08,14,17.10
2021,08,13,08,15,17.10
2021,08,13,08,16,17.20
2021,08,13,08,17,17.20
2021,08,13,08,18,17.30
2021,08,13,08,19,17.30
2021,08,13,08,20,17.40
2021,08,13,08,21,17.50
2021,08,13,08,22,17.50
2021,08,13,08,23,17.60
2021,08,13,08,24,17.70
2021,08,13,08,25,17.80
2021,08,13,08,26,17.80
2021,08,13,08,27,17.90
2021,08,13,08,28,18.00
2021,08,13,08,29,18.10
2021,08,13,08,30,18.10
2021,08,13,08,31,18.20
2021,08,13,08,32,18.30
2021,08,13,08,33,18.30
2021,08,13,08,34,18.40
2021,08,13,08,35,18.40
2021,08,13,08,36,18.40
2021,08,13,08,37,18.40
2021,08,13,08,38,18.40
2021,08,13,08,39,18.40
2021,08,13,08,40,18.40
2021,08,13,08,41,18.50
2021,08,13,08,42,18.80
2021,08,13,08,43,18.90
2021,08,13,08,44,18.90
2021,08,13,08,45,19.00
2021,08,13,08,46,19.10
2021,08,13,08,47,19.10
2021,08,13,08,48,19.20
2021,08,13,08,49,19.30
2021,08,13,08,50,19.40
2021,08,13,08,51,19.50
2021,08,13,08,52,19.50
2021,08,13,08,53,19.60
2021,08,13,08,54,19.60
2021,08,13,08,55,19.70
2021,08,13,08,56,19.70
2021,08,13,08,57,19.80
2021,08,13,08,58,19.90
2021,08,13,08,59,19.90
2021,08,13,09,00,20.00
2021,08,13,09,01,20.00
2021,08,13,09,02,20.10
2021,08,13,09,03,20.10
2021,08,13,09,04,20.20
2021,08,13,09,05,20.20
2021,08,13,09,06,20.30
2021,08,13,09,07,20.40
2021,08,13,09,08,20.40
2021,08,13,09,09,20.50
2021,08,13,09,10,20.60
2021,08,13,09,11,20.60
2021,08,13,09,12,20.70
2021,08,13,09,13,20.70
2021,08,13,09,14,20.80
2021,08,13,09,15,20.80
2021,08,13,09,16,20.90
2021,08,13,09,17,21.00
2021,08,13,09,18,21.10
2021,08,13,09,19,21.10
2021,08,13,09,20,21.20
2021,08,13,09,21,21.30
2021,08,13,09,22,21.30
2021,08,13,09,23,21.30
2021,08,13,09,24,21.40
2021,08,13,09,25,21.40
2021,08,13,09,26,21.50
2021,08,13,09,27,21.50
2021,08,13,09,28,21.60
2021,08,13,09,29,21.70
2021,08,13,09,30,21.70
2021,08,13,09,31,21.70
2021,08,13,09,32,21.70
2021,08,13,09,33,21.80
2021,08,13,09,34,21.80
2021,08,13,09,35,21.80
2021,08,13,09,36,21.80
2021,08,13,09,37,21.80
2021,08,13,09,38,21.90
2021,08,13,09,39,21.90
2021,08,13,09,40,22.00
2021,08,13,09,41,22.10
2021,08,13,09,42,22.10
2021,08,13,09,43,22.20
2021,08,13,09,44,22.20
2021,08,13,09,45,22.30
2021,08,13,09,46,22.30
2021,08,13,09,47,22.40
2021,08,13,09,48,22.50
2021,08,13,09,49,22.50
2021,08,13,09,50,22.60
2021,08,13,09,51,22.60
2021,08,13,09,52,22.60
2021,08,13,09,53,22.60
2021,08,13,09,54,22.70
2021,08,13,09,55,22.80
2021,08,13,09,56,22.80
2021,08,13,09,57,22.80
2021,08,13,09,58,22.90
2021,08,13,09,59,23.00
2021,08,13,10,00,23.00
2021,08,13,10,01,23.10
2021,08,13,10,02,23.20
2021,08,13,10,03,23.30
2021,08,13,10,04,23.40
2021,08,13,10,05,23.50
2021,08,13,10,06,23.70
2021,08,13,10,07,23.80
2021,08,13,10,08,24.00
2021,08,13,10,09,24.10
2021,08,13,10,10,24.20
2021,08,13,10,11,24.30
2021,08,13,10,12,24.40
2021,08,13,10,13,24.50
2021,08,13,10,14,24.60
2021,08,13,10,15,24.60
2021,08,13,10,16,24.70
2021,08,13,10,17,24.70
2021,08,13,10,18,24.80
2021,08,13,10,19,24.80
2021,08,13,10,20,24.80
2021,08,13,10,21,24.80
2021,08,13,10,22,24.80
2021,08,13,10,23,24.80
2021,08,13,10,24,24.80
2021,08,13,10,25,24.80
2021,08,13,10,26,24.90
2021,08,13,10,27,25.00
2021,08,13,10,28,25.10
2021,08,13,10,29,25.20
2021,08,13,10,30,25.20
2021,08,13,10,31,25.30
2021,08,13,10,32,25.40
2021,08,13,10,33,25.50
2021,08,13,10,34,25.60
2021,08,13,10,35,25.70
2021,08,13,10,36,25.80
2021,08,13,10,37,25.90
2021,08,13,10,38,26.00
2021,08,13,10,39,26.10
2021,08,13,10,40,26.20
2021,08,13,10,41,26.30
2021,08,13,10,42,26.30
2021,08,13,10,43,26.30
2021,08,13,10,44,26.30
2021,08,13,10,45,26.30
2021,08,13,10,46,26.20
2021,08,13,10,47,26.30
2021,08,13,10,48,26.30
2021,08,13,10,49,26.30
2021,08,13,10,50,26.40
2021,08,13,10,51,26.40
2021,08,13,10,52,26.40
2021,08,13,10,53,26.40
2021,08,13,10,54,26.50
2021,08,13,10,55,26.60
2021,08,13,10,56,26.60
2021,08,13,10,57,26.70
2021,08,13,10,58,26.70
2021,08,13,10,59,26.70
2021,08,13,11,00,26.70
2021,08,13,11,01,26.70
2021,08,13,11,02,26.80
2021,08,13,11,03,26.80
2021,08,13,11,04,26.80
2021,08,13,11,05,26.90
2021,08,13,11,06,26.90
2021,08,13,11,07,27.00
2021,08,13,11,08,27.00
2021,08,13,11,09,27.00
2021,08,13,11,10,27.10
2021,08,13,11,11,27.10
2021,08,13,11,12,27.20
2021,08,13,11,13,27.20
2021,08,13,11,14,27.30
2021,08,13,11,15,27.40
2021,08,13,11,16,27.50
2021,08,13,11,17,27.60
2021,08,13,11,18,27.70
2021,08,13,11,19,27.80
2021,08,13,11,20,27.80
2021,08,13,11,21,27.90
2021,08,13,11,22,27.90
2021,08,13,11,23,28.00
2021,08,13,11,24,28.10
2021,08,13,11,25,28.10
2021,08,13,11,26,28.10
2021,08,13,11,27,28.10
2021,08,13,11,28,28.20
2021,08,13,11,29,28.20
2021,08,13,11,30,28.30
2021,08,13,11,31,28.40
2021,08,13,11,32,28.50
2021,08,13,11,33,28.60
2021,08,13,11,34,28.70
2021,08,13,11,35,28.80
2021,08,13,11,36,28.90
2021,08,13,11,37,29.00
2021,08,13,11,38,29.00
2021,08,13,11,39,29.10
2021,08,13,11,40,29.20
2021,08,13,11,41,29.20
2021,08,13,11,42,29.20
2021,08,13,11,43,29.30
2021,08,13,11,44,29.30
2021,08,13,11,45,29.40
2021,08,13,11,46,29.50
2021,08,13,11,47,29.60
2021,08,13,11,48,29.60
2021,08,13,11,49,29.70
2021,08,13,11,50,29.70
2021,08,13,11,51,29.70
2021,08,13,11,52,29.70
2021,08,13,11,53,29.70
2021,08,13,11,54,29.70
2021,08,13,11,55,29.70
2021,08,13,11,56,29.80
2021,08,13,11,57,29.80
2021,08,13,11,58,29.90
2021,08,13,11,59,30.00
2021,08,13,12,00,30.00
2021,08,13,12,01,30.10
2021,08,13,12,02,30.10
2021,08,13,12,03,30.10
2021,08,13,12,04,30.20
2021,08,13,12,05,30.20
2021,08,13,12,06,30.20
2021,08,13,12,07,30.20
2021,08,13,12,08,30.20
2021,08,13,12,09,30.20
2021,08,13,12,10,30.10
2021,08,13,12,11,30.10
2021,08,13,12,12,30.10
2021,08,13,12,13,30.10
2021,08,13,12,14,30.00
2021,08,13,12,15,29.80
2021,08,13,12,16,29.70
2021,08,13,12,17,29.60
2021,08,13,12,18,29.40
2021,08,13,12,19,29.30
2021,08,13,12,20,29.10
2021,08,13,12,21,29.00
2021,08,13,12,22,28.90
2021,08,13,12,23,28.80
2021,08,13,12,24,28.80
2021,08,13,12,25,28.80
2021,08,13,12,26,28.80
2021,08,13,12,27,28.80
2021,08,13,12,28,28.80
2021,08,13,12,29,28.90
2021,08,13,12,30,28.80
2021,08,13,12,31,28.80
2021,08,13,12,32,28.80
2021,08,13,12,33,28.80
2021,08,13,12,34,28.80
2021,08,13,12,35,28.80
2021,08,13,12,36,28.80
2021,08,13,12,37,28.90
2021,08,13,12,38,28.90
2021,08,13,12,39,29.00
2021,08,13,12,40,29.00
2021,08,13,12,41,29.00
2021,08,13,12,42,29.00
2021,08,13,12,43,29.00
2021,08,13,12,44,28.90
2021,08,13,12,45,28.90
2021,08,13,12,46,28.80
2021,08,13,12,47,28.80
2021,08,13,12,48,28.80
2021,08,13,12,49,28.80
2021,08,13,12,50,28.90
2021,08,13,12,51,28.90
2021,08,13,12,52,28.90
2021,08,13,12,53,28.90
2021,08,13,12,54,28.90
2021,08,13,12,55,28.90
2021,08,13,12,56,28.90
2021,08,13,12,57,29.00
2021,08,13,12,58,29.10
2021,08,13,12,59,29.10
2021,08,13,13,00,29.20
2021,08,13,13,01,29.30
2021,08,13,13,02,29.40
2021,08,13,13,03,29.50
2021,08,13,13,04,29.60
2021,08,13,13,05,29.70
2021,08,13,13,06,29.70
2021,08,13,13,07,29.80
2021,08,13,13,08,29.80
2021,08,13,13,09,29.80
2021,08,13,13,10,29.90
2021,08,13,13,11,30.00
2021,08,13,13,12,30.00
2021,08,13,13,13,30.10
2021,08,13,13,14,30.20
2021,08,13,13,15,30.30
2021,08,13,13,16,30.40
2021,08,13,13,17,30.50
2021,08,13,13,18,30.50
2021,08,13,13,19,30.60
2021,08,13,13,20,30.70
2021,08,13,13,21,30.70
2021,08,13,13,22,30.70
2021,08,13,13,23,30.70
2021,08,13,13,24,30.70
2021,08,13,13,25,30.70
2021,08,13,13,26,31.00
2021,08,13,13,27,31.20
2021,08,13,13,28,31.40
2021,08,13,13,29,31.50
2021,08,13,13,30,31.60
2021,08,13,13,31,31.70
2021,08,13,13,32,31.80
2021,08,13,13,33,31.90
2021,08,13,13,34,32.00
2021,08,13,13,35,32.10
2021,08,13,13,36,32.20
2021,08,13,13,37,32.20
2021,08,13,13,38,32.30
2021,08,13,13,39,32.40
2021,08,13,13,40,32.50
2021,08,13,13,41,32.50
2021,08,13,13,42,32.50
2021,08,13,13,43,32.60
2021,08,13,13,44,32.60
2021,08,13,13,45,32.50
2021,08,13,13,46,32.40
2021,08,13,13,47,32.30
2021,08,13,13,48,32.30
2021,08,13,13,49,32.30
2021,08,13,13,50,32.30
2021,08,13,13,51,32.30
2021,08,13,13,52,32.30
2021,08,13,13,53,32.30
2021,08,13,13,54,32.20
2021,08,13,13,55,32.20
2021,08,13,13,56,32.20
2021,08,13,13,57,32.30
2021,08,13,13,58,32.30
2021,08,13,13,59,32.40
2021,08,13,14,00,32.40
2021,08,13,14,01,32.50
2021,08,13,14,02,32.60
2021,08,13,14,03,32.60
2021,08,13,14,04,32.70
2021,08,13,14,05,32.70
2021,08,13,14,06,32.70
2021,08,13,14,07,32.80
2021,08,13,14,08,32.90
2021,08,13,14,09,33.00
2021,08,13,14,10,33.10
2021,08,13,14,11,33.10
2021,08,13,14,12,33.20
2021,08,13,14,13,33.30
2021,08,13,14,14,33.30
2021,08,13,14,15,33.30
2021,08,13,14,16,33.30
2021,08,13,14,17,33.30
2021,08,13,14,18,33.30
2021,08,13,14,19,33.30
2021,08,13,14,20,33.30
2021,08,13,14,21,33.30
2021,08,13,14,22,33.30
2021,08,13,14,23,33.30
2021,08,13,14,24,33.40
2021,08,13,14,25,33.40
2021,08,13,14,26,33.50
2021,08,13,14,27,33.50
2021,08,13,14,28,33.60
2021,08,13,14,29,33.60
2021,08,13,14,30,33.60
2021,08,13,14,31,33.60
2021,08,13,14,32,33.70
2021,08,13,14,33,33.70
2021,08,13,14,34,33.60
2021,08,13,14,35,33.60
2021,08,13,14,36,33.50
2021,08,13,14,37,33.50
2021,08,13,14,38,33.40
2021,08,13,14,39,33.40
2021,08,13,14,40,33.30
2021,08,13,14,41,33.30
2021,08,13,14,42,33.30
2021,08,13,14,43,33.30
2021,08,13,14,44,33.30
2021,08,13,14,45,33.30
2021,08,13,14,46,33.30
2021,08,13,14,47,33.30
2021,08,13,14,48,33.30
2021,08,13,14,49,33.20
2021,08,13,14,50,33.20
2021,08,13,14,51,33.20
2021,08,13,14,52,33.30
2021,08,13,14,53,33.30
2021,08,13,14,54,33.40
2021,08,13,14,55,33.40
2021,08,13,14,56,33.50
2021,08,13,14,57,33.50
2021,08,13,14,58,33.60
2021,08,13,14,59,33.60
2021,08,13,15,00,33.70
2021,08,13,15,01,33.70
2021,08,13,15,02,33.80
2021,08,13,15,03,33.80
2021,08,13,15,04,33.80
2021,08,13,15,05,33.90
2021,08,13,15,06,33.90
2021,08,13,15,07,33.90
2021,08,13,15,08,33.90
2021,08,13,15,09,33.90
2021,08,13,15,10,33.80
2021,08,13,15,11,33.80
2021,08,13,15,12,33.80
2021,08,13,15,13,33.70
2021,08,13,15,14,33.70
2021,08,13,15,15,33.60
2021,08,13,15,16,33.60
2021,08,13,15,17,33.60
2021,08,13,15,18,33.50
2021,08,13,15,19,33.50
2021,08,13,15,20,33.50
2021,08,13,15,21,33.60
2021,08,13,15,22,33.60
2021,08,13,15,23,33.60
2021,08,13,15,24,33.60
2021,08,13,15,25,33.60
2021,08,13,15,26,33.70
2021,08,13,15,27,33.70
2021,08,13,15,28,33.70
2021,08,13,15,29,33.80
2021,08,13,15,30,33.80
2021,08,13,15,31,33.70
2021,08,13,15,32,33.70
2021,08,13,15,33,33.60
2021,08,13,15,34,33.60
2021,08,13,15,35,33.50
2021,08,13,15,36,33.50
2021,08,13,15,37,33.40
2021,08,13,15,38,33.40
2021,08,13,15,39,33.40
2021,08,13,15,40,33.40
2021,08,13,15,41,33.40
2021,08,13,15,42,33.40
2021,08,13,15,43,33.40
2021,08,13,15,44,33.40
2021,08,13,15,45,33.40
2021,08,13,15,46,33.40
2021,08,13,15,47,33.40
2021,08,13,15,48,33.40
2021,08,13,15,49,33.40
2021,08,13,15,50,33.30
2021,08,13,15,51,33.30
2021,08,13,15,52,33.30
2021,08,13,15,53,33.20
2021,08,13,15,54,33.20
2021,08,13,15,55,33.10
2021,08,13,15,56,33.10
2021,08,13,15,57,33.00
2021,08,13,15,58,33.00
2021,08,13,15,59,32.90
2021,08,13,16,00,32.90
2021,08,13,16,01,32.90
2021,08,13,16,02,32.80
2021,08,13,16,03,32.80
2021,08,13,16,04,32.80
2021,08,13,16,05,32.80
2021,08,13,16,06,32.80
2021,08,13,16,07,32.80
2021,08,13,16,08,32.80
2021,08,13,16,09,32.80
2021,08,13,16,10,32.80
2021,08,13,16,11,32.80
2021,08,13,16,12,32.80
2021,08,13,16,13,32.80
2021,08,13,16,14,32.80
2021,08,13,16,15,32.80
2021,08,13,16,16,32.80
2021,08,13,16,17,32.70
2021,08,13,16,18,32.70
2021,08,13,16,19,32.70
2021,08,13,16,20,32.70
2021,08,13,16,21,32.70
2021,08,13,16,22,32.70
2021,08,13,16,23,32.70
2021,08,13,16,24,32.70
2021,08,13,16,25,32.70
2021,08,13,16,26,32.70
2021,08,13,16,27,32.60
2021,08,13,16,28,32.60
2021,08,13,16,29,32.60
2021,08,13,16,30,32.60
2021,08,13,16,31,32.50
2021,08,13,16,32,32.50
2021,08,13,16,33,32.40
2021,08,13,16,34,32.40
2021,08,13,16,35,32.40
2021,08,13,16,36,32.40
2021,08,13,16,37,32.40
2021,08,13,16,38,32.40
2021,08,13,16,39,32.40
2021,08,13,16,40,32.40
2021,08,13,16,41,32.40
2021,08,13,16,42,32.40
2021,08,13,16,43,32.40
2021,08,13,16,44,32.40
2021,08,13,16,45,32.40
2021,08,13,16,46,32.40
2021,08,13,16,47,32.50
2021,08,13,16,48,32.40
2021,08,13,16,49,32.40
2021,08,13,16,50,32.40
2021,08,13,16,51,32.40
2021,08,13,16,52,32.30
2021,08,13,16,53,32.30
2021,08,13,16,54,32.30
2021,08,13,16,55,32.30
2021,08,13,16,56,32.30
2021,08,13,16,57,32.30
2021,08,13,16,58,32.40
2021,08,13,16,59,32.40
2021,08,13,17,00,32.40
2021,08,13,17,01,32.50
2021,08,13,17,02,32.50
2021,08,13,17,03,32.60
2021,08,13,17,04,32.60
2021,08,13,17,05,32.70
2021,08,13,17,06,32.70
2021,08,13,17,07,32.70
2021,08,13,17,08,32.80
2021,08,13,17,09,32.70
2021,08,13,17,10,32.70
2021,08,13,17,11,32.70
2021,08,13,17,12,32.70
2021,08,13,17,13,32.70
2021,08,13,17,14,32.70
2021,08,13,17,15,32.70
2021,08,13,17,16,32.60
2021,08,13,17,17,32.60
2021,08,13,17,18,32.60
2021,08,13,17,19,32.50